Regional Weather Roundup
Issued by NWS

Home | Current Version | Previous Version | Text Only | Print | Product List | Glossary Off
Versions: 1 2 3 4 5 6 7 8 9 10 11 12 13 14 15 16 17 18 19 20 21 22 23 24 25 26 27 28 29 30 31 32 33 34 35 36 37 38 39 40 41 42 43 44 45 46 47 48 49 50

000
ASUS45 KTFX 111119
RWRMT
MONTANA HOURLY WEATHER ROUNDUP
NATIONAL WEATHER SERVICE GREAT FALLS MT
519 AM MDT FRI JUL 11 2014

NOTE: "FAIR" INDICATES FEW OR NO CLOUDS BELOW 12000 FEET WITH NO
SIGNIFICANT WEATHER AND/OR OBSTRUCTIONS TO VISIBILITY.

* THESE STATIONS ARE NOT UNDER NWS QUALITY CONTROL. THEY DO NOT
   REPORT WEATHER SUCH AS PRECIPITATION OR FOG.

MTZ001>007-043-111200-
WEST OF THE DIVIDE
CITY           SKY/WX    TMP DP  RH WIND       PRES   REMARKS
KALISPELL      CLEAR     66  48  52 NE13G30   30.01R
MISSOULA       CLEAR     55  41  59 CALM      30.02R
BUTTE          PTCLDY    54  39  57 SE3       30.13R
MULLAN PASS    CLEAR     63  37  38 N3        30.14R
* ESSEX        N/A      N/A N/A N/A N/A        N/A
* LINCOLN      N/A       62  52  70 NE11G19    N/A
* LOOKOUT PASS N/A       56  40  55 SE1        N/A
* POLSON       N/A       56  44  64 N2         N/A
* RONAN APT    CLEAR     54  48  80 N/A        N/A
* SEELEY LAKE  N/A       44  40  86 NE2        N/A
* THOMP F APT  CLEAR     59  44  58 NE3G13     N/A
* YAAK HILL    N/A       56  49  77 N/A        N/A
$$

MTZ008-052>055-111200-
SOUTHWEST MONTANA
CITY           SKY/WX    TMP DP  RH WIND       PRES   REMARKS
BOZEMAN        PTCLDY    52  45  77 SE6       30.05R
DILLON         PTCLDY    59  37  44 S5        30.07R
W YELLOWSTONE  PTCLDY    45  43  93 SW3       30.19R
* THREE FORKS  PTCLDY    52  52 100 N/A        N/A
* BOULDER HILL N/A       58  41  53 N17G24     N/A
* MONIDA PASS  N/A       55  45  69 N4         N/A
* RAYNOLDS PAS N/A       54  51  90 VRB3       N/A
* WHITEHALL    N/A       58  38  47 SE1G8      N/A
* WISE RIVER   N/A       50  40  69 W2         N/A
$$

MTZ009>010-012-014-046-048-049-054-111200-
EAST SLOPES AND CENTRAL MONTANA
CITY           SKY/WX    TMP DP  RH WIND       PRES   REMARKS
CUT BANK       CLOUDY    55  48  77 N15       30.18R
GREAT FALLS    CLOUDY    63  55  75 N10       30.12R
HELENA         CLEAR     64  52  65 NW8       30.10R
* CONRAD       PTCLDY    57  55  93 W9         N/A
* DEARBORN     N/A       65  53  65 NE8G13     N/A
* EAST GLACIER N/A       52  46  80 E1         N/A
* MONARCH      N/A       56  52  87 NW14       N/A
* SAINT MARY   N/A       55  48  77 NE5G15     N/A
* SWEET GRASS  N/A       51  51 100 VRB11G16    N/A
* WHITE SULPH  N/A       55  49  80 NW9        N/A
$$

MTZ011-013-016-021-035-040-045-047-050-051-111200-
NORTH CENTRAL MONTANA
CITY           SKY/WX    TMP DP  RH WIND       PRES   REMARKS
HAVRE          MOCLDY    63  59  87 NE6       30.07R
* FORT BENTON  CLEAR     66  54  65 N9        30.08R
* CHESTER      N/A       59  54  84 NE6G12     N/A
* DENTON       N/A       63  58  84 N12G17     N/A
* GEYSER       N/A       57  48  72 NW4G9      N/A
* JUDITH GAP   N/A       60  49  67 NW16G22    N/A
* LOMA         N/A       63  54  73 NE14G21    N/A
$$

MTZ017>020-022>027-061-062-111200-
NORTHEAST MONTANA
CITY           SKY/WX    TMP DP  RH WIND       PRES   REMARKS
GLASGOW        LGT RAIN  63  61  93 NE7       30.05R
GLENDIVE       CLOUDY    64  57  78 N14       29.99R
JORDAN         MOCLDY    66  57  73 N15       30.03R
SIDNEY         CLOUDY    63  59  87 N14       29.98R
WOLF POINT     CLOUDY    64  59  84 N8        30.02R
* BEAVER HILL  N/A       59  58  97 N11G17     N/A
* CIRCLE       N/A       63  58  84 NE5G12     N/A
* LINDSAY DVD  N/A       62  59  90 NE9G15     N/A
* NAVAJO       N/A       59  57  93 W6         N/A
* SACO         N/A       62  61  97 SE8        N/A
$$

MTZ028>042-056>058-111200-
SOUTHCENTRAL AND SOUTHEAST MONTANA
CITY           SKY/WX    TMP DP  RH WIND       PRES   REMARKS
BAKER          CLEAR     61  57  87 NW3       29.96R
BILLINGS       FAIR      70  48  46 CALM      29.95R
LIVINGSTON     CLEAR     54  43  67 W5        30.03R
MILES CITY     CLEAR     64  61  90 NE9       29.93R
* LAUREL APT   CLEAR     61  46  58 N/A        N/A
* ROUNDUP APT  CLEAR     63  52  68 N11        N/A
* ALZADA       N/A       59  56  90 N/A        N/A
* HYSHAM       N/A       68  52  57 E6         N/A
* LAME DEER    N/A       67  49  53 SE8        N/A
* REED POINT   N/A       62  46  56 W8         N/A
* ROSCOE HILL  N/A       69  39  34 SE1        N/A
$$

REGIONAL REPORTS...DAKOTAS
CITY           SKY/WX    TMP DP  RH WIND       PRES   REMARKS
WILLISTON      PTCLDY    61  57  87 NW12      29.97R
DICKINSON      CLEAR     57  55  93 NW7       29.93R
CROSBY         N/A       55  55 100 NW8       29.96R
TIOGA          CLEAR     57  57 100 N3        29.98R
WATFORD CITY   CLEAR     61  59  93 NE3       29.93R
BISMARCK       FOG       61 N/A N/A E5        29.84R VSB M1/4
GRAND FORKS    FOG       63  61  93 CALM      29.80R VSB M1/4
FARGO          CLEAR     70  66  87 S10       29.81R
BUFFALO SD     PTCLDY    61  59  93 NW3       29.87R
RAPID CITY     MOCLDY    63  61  93 NW5       29.94R
$$

REGIONAL REPORTS...WYOMING/IDAHO/WASHINGTON
CITY           SKY/WX    TMP DP  RH WIND       PRES   REMARKS
GILLETTE       PTCLDY    61  55  81 S6        30.00R
SHERIDAN       PTCLDY    57  52  83 W3        29.97R
CODY           PTCLDY    64  50  61 SW9       30.05R
YELLOWSTONE LA PTCLDY    43  41  93 CALM      30.30R
SALMON         PTCLDY    55  48  77 CALM      30.01R
MULLAN PASS    CLEAR     63  37  38 N3        30.14S
SAND POINT     CLEAR     52  52 100 CALM      29.95R
SPOKANE        MOCLDY    66  45  47 CALM      29.92R
$$

REGIONAL REPORTS...ALBERTA
CITY           SKY/WX    TMP DP  RH WIND       PRES   REMARKS
CALGARY        MOCLDY    48  43  83 NW5       30.20S
LETHBRIDGE     CLOUDY    57  46  67 N9        30.19R
MEDICINE HAT   PTCLDY    55  48  77 N12       30.14R
EDMONTON       FOG       43  41  93 SW5       30.12S
WATERTON GATE  N/A       54  48  80 SE1        N/A
CARDSTON       N/A       54  52  93 NW2        N/A
MILK RIVER     N/A       52  48  86 N10        N/A
$$

REGIONAL REPORTS...SASKATCHEWAN
CITY           SKY/WX    TMP DP  RH WIND       PRES   REMARKS
SWIFT CURRENT  PTCLDY    48  46  93 W8        30.07R
MOOSE JAW      MOCLDY    54  50  86 W10       30.02R
REGINA         MOCLDY    54  50  86 W10       29.99R
VAL MARIE      N/A       55  50  83 NE7        N/A
ASSINIBOIA     N/A       54  50  86 NW6        N/A
CORONACH       N/A       59  57  93 NW12G18    N/A

$$



USA.gov is the U.S. government's official web portal to all federal, state and local government web resources and services.